COSMOS 249 DEB *, 3758

Orbit data source: Space-Track

COSMOS 249 DEB *, 3758 is space debris in LEO originally from a launch on Sun, 20 Oct 1968 UTC launched from the Tyuratam Missile And Space Complex (TTMTR). Debris objects in space refer to the collection of defunct objects orbiting the Earth. Examples of debris include non-operational satellites, rocket bodies, and fragments generated from explosions, collisions, or faulty payload assembly.

Loading next visibility...
Identifier
3758, 1968-091AV
Orbit
LEO
Country
Flag of CISCIS
Related business
Manufacturer
Unknown
Mission
Spacecraft
Bus & Motor
Unknown
Mass
Unknown
Launch date (UTC)
1968-10-20 (57 years ago)
Launch vehicle
Unknown
Launch site
Tyuratam Missile And Space Complex (TTMTR)
Object type
Payload
Rocket body
Debris
Shape & HBR
Unknown shape, 0.1 m
Radar Cross Section
Small (<0.1 m²)

Expand to show TLE details & history
Last TLE update: 2 days ago

TLE from 2 days ago
0 COSMOS 249 DEB *
1 03758U 68091AV  26034.47238776  .00000622  00000-0  80898-3 0  9992
2 03758  62.2602  87.6946 0777808  76.5891 292.0526 12.82228511596745
Epoch: 2026-02-03T11:20Z
TLE epoch observation values (Epoch: 2026-02-03T11:20:14.302Z)
Latitude
-0.00003°
Longitude
143.98217°
Altitude
1,150.692 km
Speed
7.364 km/s
True Right ascension
05h 50m 46s
True Declination
0° 00' 00"
Sunlit
Object was in full shadow at epoch
Visualization orbit readout
Latitude
Unknown
Longitude
Unknown
Altitude
Unknown
Speed
Unknown
Apparent Right ascension
Unknown
Apparent Declination
Unknown
Sunlit
N/A
Visualization observer readout
Local Sidereal Time
02:50:22
Azimuth
Unknown
Elevation
Unknown
Doppler factor
Unknown
Orbital elements
Apogee altitude
1,931.182 km
Perigee altitude
731.856 km
Semi-major axis
7,709.656 km
Eccentricity
0.07778
Inclination
62.2602°
RAAN
87.6946°
Arg. of periapsis
76.5891°
True anomaly
283.51106°
Mean anomaly
292.0526°
Eccentric anomaly
287.80965°
Mean motion
3.2062 °/min
Orbital period
112.28 mins
BSTAR
0.00080898
Loading maneuver chart data...
Computing Atmospheric mass density...

Documentation

Showing up to 5 results
|